Погода в Старой Вичуге

Россия / Ивановская область     57°15′56″N   41°52′37″E
темп.,
°C
ветер,
м/с
пор.,
м/с
влажн.,
%
обл.,
%
осадки,
мм/ч
давл.,
гПа
погр.,
м
22 апреля, чт
чт2200:00+3ююз4992100 0.0 1012429
03:00+3ю4995100 0.0 1013383
06:00+3ююз4897100 0.1 1014588
09:00+3ююз4897100 1.0 1016630
12:00+5ююз5889100 0.1 1016629
15:00+8ююз5979100 0.2 10171195
18:00+8ююз497694 0.0 1017433
21:00+7ююв4108578 0.0 1018216
23 апреля, пт
пт2300:00+5ююв4119227 0.0 1018225
03:00+4ююв411927 0.0 1018235
06:00+5ююв4119130 0.0 1018278
09:00+10ю5107560 0.0 1018492
12:00+15ю695888 0.3 10171387
15:00+15ю695691 1.3 10171551
18:00+13ююв5115993 0.0 1016727
21:00+9юв4127346 0.1 1016311
24 апреля, сб
сб2400:00+8юв413795 0.0 1015283
03:00+7юв5137932 0.0 1013294
06:00+7юв5147729 0.0 1012372
09:00+12юв6126677 0.1 1009950
12:00+14юв7115523 0.8 10071746
15:00+13юв7116798 3.1 10051411
18:00+9юз3591100 6.4 1004438
21:00+5зсз4697100 16.6 1003310
25 апреля, вс
вс2500:00+2з51298100 7.3 1003508
03:00+3з71497100 8.1 1003677
06:00+3з61192100 0.4 1004875
09:00+5з61079100 0.6 10041084
12:00+7з7106389 0.9 10051779
15:00+7зюз8106353 1.8 10061703
18:00+6зюз59655 0.1 10071226
21:00+3юз411815 0.3 1008312
26 апреля, пн
пн2600:00+1юз411875 0.0 1009320
03:000юз411895 0.0 1009384
06:00+1юз511885 0.0 1010536
09:00+4юз697180 0.0 10101152
12:00+5юз6964100 0.3 10101563
15:00+8зюз584773 0.6 10102075
18:00+7зюз375827 0.7 1009586
21:00+2юз35775 0.7 101067